Location: DARK SKY Beskydy - Park tmavé oblohy, www.darkskybeskydy.cz
(49.4926°N, 18.5016°E)
Time: 03:01:56
(UTC+02:00)

A-11 Canister half - Pass Details

Date: 27 February 2024
Orbit: 1513 x 1686 km, 47.2° (Epoch: 24 April)

Event Time Altitude Azimuth Distance (km) Brightness Sun altitude
Rises 22:17:14 0° 171° (S) 4,916 - -43.6°
Reaches altitude 10° 22:22:56 10° 146° (SE) 3,943 - -44.2°
Maximum altitude 22:26:50 13° 123° (ESE) 3,715 - -44.5°
Drops below altitude 10° 22:30:43 10° 99° (E) 3,943 - -44.9°
Sets 22:36:21 0° 75° (ENE) 4,918 - -45.3°
